Hourly Data Report for November 09, 2017

All times are specified in Local Standard Time (LST). Add 1 hour to adjust for Daylight Saving Time where and when it is observed.

SUDBURY A
ONTARIO

46°37'32.000" N
80°47'52.000" W
348.40 m
6068153
71730
YSB

Download Data

Hourly Data (November 2017)
Hourly Data Report for November 9, 2017
Temp Definition
°C
Dew Point Temp Definition
°C
Rel Hum Definition
%
Wind Dir Definition
10's deg

Wind Spd Definition
km/h
Visibility Definition
km
Stn Press Definition
kPa
Hmdx Definition


Wind Chill Definition


Weather Definition


TIME
00:00 0.3 -4.1 72 22 8 24.1 97.45     Snow
01:00 0.5 -5.5 64 25 12 24.1 97.43     Snow
02:00 -0.2 -4.5 73 23 14 24.1 97.40   -4 Snow
03:00 -0.2 -4.9 71 22 12 24.1 97.35   -4 Snow
04:00 -0.4 -4.8 72 23 10 24.1 97.26   -4 Snow
05:00 -0.2 -4.6 72 23 17 9.7 97.24   -5 Snow
06:00 -1.2 -3.1 87 22 14 12.9 97.20   -6 Snow
07:00 -1.0 -2.7 88 20 22 19.3 97.11   -7 Snow
08:00 -0.7 -2.4 89 21 17 16.1 97.04   -6 Snow
09:00 -0.5 -1.9 91 19 14 3.2 96.93   -5 Snow
10:00 -0.4 -1.4 93 16 15 1.2 96.75   -5 Snow
11:00 -0.2 -0.9 96 15 19 1.2 96.59   -5 Snow
12:00 1.0 0.4 95 17 21 3.2 96.36     Snow
13:00 0.2 -0.3 96 20 18 1.0 96.20     Snow
14:00 -3.1 -4.4 91 33 33 1.0 96.31   -11 Snow
15:00 -6.0 -8.6 82 31 37 12.9 96.51   -15 Snow
16:00 -7.0 -9.6 82 33 28 24.1 96.69   -15 Snow
17:00 -8.6 -11.4 80 32 22 4.8 96.91   -16 Snow
18:00 -9.6 -13.6 73 32 30 19.3 97.09   -19 LegendNANA
19:00 -10.8 -15.0 72 33 38 24.1 97.21   -22 Mostly Cloudy
20:00 -12.2 -16.4 72 34 26 24.1 97.38   -22 Snow
21:00 -13.2 -18.0 68 32 33 24.1 97.51   -24 Snow
22:00 -14.6 -19.1 69 32 21 16.1 97.64   -24 Snow
23:00 -15.3 -20.5 65 32 34 16.1 97.76   -27 LegendNANA

Notes on Data Quality.

Legend

  • E = Estimated
  • M = Missing
  • NA = Not Available
Date modified: